This demonstration page uses our WeatherBlox Daily Observations layout. Learn more.

Left ArrowRight Arrow

Hourly Observations for May 14, 2021

Temp ( °F °C ) Dew Point ( °F °C ) Humidity (%) Winds ( mph kmh ) Pressure ( in mb ) Visibility ( mi km ) Precip ( " mm )
12:15 am 00:15 Clear 46 8 39 4 76 76 N N/A 30.35 1028 7 11.26538 N/A
12:35 am 00:35 Clear 46 8 41 5 82 82 N N/A 30.35 1028 10 16.0934 N/A
12:55 am 00:55 Clear 45 7 37 3 76 76 N N/A 30.35 1028 10 16.0934 N/A
1:15 am 01:15 Partly Cloudy 45 7 37 3 76 76 N N/A 30.35 1028 10 16.0934 N/A
1:35 am 01:35 Partly Cloudy 43 6 41 5 93 93 N N/A 30.35 1028 10 16.0934 N/A
1:55 am 01:55 Mostly Cloudy 43 6 41 5 93 93 N N/A 30.35 1028 10 16.0934 N/A
2:15 am 02:15 Partly Cloudy 45 7 39 4 81 81 N N/A 30.35 1028 10 16.0934 N/A
2:35 am 02:35 Mostly Cloudy 45 7 39 4 81 81 N N/A 30.34 1027 10 16.0934 N/A
2:55 am 02:55 Cloudy 43 6 43 6 100 100 N N/A 30.34 1028 10 16.0934 N/A
3:15 am 03:15 Cloudy 43 6 41 5 93 93 N N/A 30.34 1028 10 16.0934 N/A
3:35 am 03:35 Cloudy 43 6 43 6 100 100 N N/A 30.34 1028 10 16.0934 N/A
3:55 am 03:55 Cloudy 43 6 43 6 100 100 N N/A 30.34 1028 10 16.0934 N/A
4:15 am 04:15 Partly Cloudy 43 6 41 5 93 93 N N/A 30.34 1028 10 16.0934 N/A
4:35 am 04:35 Clear 46 8 37 3 71 71 N N/A 30.34 1027 10 16.0934 N/A
4:55 am 04:55 Clear 43 6 39 4 87 87 N N/A 30.35 1028 10 16.0934 N/A
5:15 am 05:15 Clear 43 6 41 5 93 93 N N/A 30.35 1028 10 16.0934 N/A
5:35 am 05:35 Clear 39 4 39 4 100 100 N N/A 30.36 1028 10 16.0934 N/A
5:55 am 05:55 Clear 41 5 39 4 93 93 N N/A 30.36 1028 10 16.0934 N/A
6:15 am 06:15 Clear 37 3 37 3 100 100 N N/A 30.37 1029 10 16.0934 N/A
6:35 am 06:35 Sunny 39 4 39 4 100 100 N N/A 30.37 1028 10 16.0934 N/A
6:55 am 06:55 Sunny 39 4 39 4 100 100 N N/A 30.37 1028 10 16.0934 N/A
7:15 am 07:15 Sunny 41 5 41 5 100 100 N N/A 30.38 1029 10 16.0934 N/A
7:35 am 07:35 Sunny 43 6 43 6 100 100 N N/A 30.38 1029 10 16.0934 N/A
7:55 am 07:55 Sunny 46 8 43 6 87 87 N N/A 30.38 1029 10 16.0934 N/A
8:15 am 08:15 Sunny 48 9 46 8 94 94 N N/A 30.38 1029 10 16.0934 N/A
8:35 am 08:35 Sunny 52 11 45 7 77 77 N N/A 30.38 1029 10 16.0934 N/A
8:55 am 08:55 Sunny 54 12 43 6 67 67 N N/A 30.37 1029 10 16.0934 N/A
9:15 am 09:15 Sunny 55 13 43 6 63 63 N N/A 30.37 1028 10 16.0934 N/A
9:35 am 09:35 Sunny 59 15 43 6 55 55 N N/A 30.36 1028 10 16.0934 N/A
9:55 am 09:55 Sunny 61 16 43 6 52 52 N N/A 30.36 1028 10 16.0934 N/A
10:15 am 10:15 Sunny 63 17 39 4 42 42 N N/A 30.36 1028 10 16.0934 N/A
10:35 am 10:35 Sunny 63 17 41 5 45 45 N N/A 30.36 1028 10 16.0934 N/A
10:55 am 10:55 Sunny 64 18 41 5 43 43 N N/A 30.35 1028 10 16.0934 N/A
11:15 am 11:15 Sunny 64 18 39 4 40 40 N N/A 30.35 1028 10 16.0934 N/A
11:35 am 11:35 Partly Cloudy 64 18 39 4 40 40 N N/A 30.35 1028 10 16.0934 N/A
11:55 am 11:55 Mostly Cloudy 64 18 37 3 37 37 N N/A 30.34 1028 10 16.0934 N/A
12:15 pm 12:15 Partly Cloudy 66 19 39 4 37 37 N N/A 30.34 1027 10 16.0934 N/A
12:35 pm 12:35 Sunny 66 19 37 3 35 35 N N/A 30.34 1027 10 16.0934 N/A
12:55 pm 12:55 Partly Cloudy 66 19 37 3 35 35 N N/A 30.33 1027 10 16.0934 N/A
1:15 pm 13:15 Partly Cloudy 68 20 39 4 35 35 N N/A 30.32 1027 10 16.0934 N/A
1:35 pm 13:35 Sunny 66 19 37 3 35 35 N N/A 30.32 1027 10 16.0934 N/A
1:55 pm 13:55 Sunny 66 19 37 3 35 35 N N/A 30.31 1026 10 16.0934 N/A
2:15 pm 14:15 Sunny 68 20 39 4 35 35 N N/A 30.3 1026 10 16.0934 N/A
2:35 pm 14:35 Partly Cloudy 68 20 39 4 35 35 N N/A 30.3 1026 10 16.0934 N/A
2:55 pm 14:55 Partly Cloudy 68 20 39 4 35 35 N N/A 30.29 1026 10 16.0934 N/A
3:15 pm 15:15 Partly Cloudy 68 20 39 4 35 35 N N/A 30.29 1026 10 16.0934 N/A
3:35 pm 15:35 Sunny 70 21 41 5 35 35 N N/A 30.27 1025 10 16.0934 N/A
3:55 pm 15:55 Partly Cloudy 70 21 37 3 31 31 N N/A 30.27 1025 10 16.0934 N/A
4:15 pm 16:15 Partly Cloudy 68 20 37 3 33 33 N N/A 30.27 1025 10 16.0934 N/A
4:35 pm 16:35 Sunny 68 20 37 3 33 33 N N/A 30.27 1025 10 16.0934 N/A
4:55 pm 16:55 Sunny 68 20 37 3 33 33 N N/A 30.26 1025 10 16.0934 N/A
5:15 pm 17:15 Sunny 68 20 39 4 35 35 N N/A 30.25 1024 10 16.0934 N/A
5:35 pm 17:35 Sunny 68 20 37 3 33 33 N N/A 30.25 1024 10 16.0934 N/A
5:55 pm 17:55 Sunny 68 20 37 3 33 33 N N/A 30.25 1024 10 16.0934 N/A
6:15 pm 18:15 Sunny 68 20 37 3 33 33 N N/A 30.24 1024 10 16.0934 N/A
6:35 pm 18:35 Sunny 66 19 37 3 35 35 N N/A 30.24 1024 10 16.0934 N/A
6:55 pm 18:55 Sunny 68 20 37 3 33 33 N N/A 30.24 1024 10 16.0934 N/A
7:15 pm 19:15 Sunny 66 19 37 3 35 35 N N/A 30.24 1024 10 16.0934 N/A
7:35 pm 19:35 Sunny 64 18 37 3 37 37 N N/A 30.24 1024 10 16.0934 N/A
7:55 pm 19:55 Sunny 66 19 37 3 35 35 N N/A 30.24 1024 10 16.0934 N/A
8:15 pm 20:15 Sunny 64 18 37 3 37 37 N N/A 30.24 1024 10 16.0934 N/A
8:35 pm 20:35 Sunny 63 17 37 3 39 39 N N/A 30.25 1024 10 16.0934 N/A
8:55 pm 20:55 Clear 61 16 39 4 45 45 N N/A 30.25 1024 10 16.0934 N/A
9:15 pm 21:15 Clear 57 14 39 4 51 51 N N/A 30.26 1025 10 16.0934 N/A
9:35 pm 21:35 Clear 55 13 41 5 59 59 N N/A 30.27 1025 10 16.0934 N/A
9:55 pm 21:55 Clear 52 11 46 8 82 82 N N/A 30.27 1025 10 16.0934 N/A
10:15 pm 22:15 Clear 52 11 45 7 77 77 N N/A 30.28 1025 10 16.0934 N/A
10:35 pm 22:35 Clear 54 12 41 5 63 63 N N/A 30.27 1025 10 16.0934 N/A
10:55 pm 22:55 Clear 54 12 41 5 63 63 N N/A 30.27 1025 10 16.0934 N/A
11:15 pm 23:15 Clear 50 10 46 8 88 88 N N/A 30.28 1025 10 16.0934 N/A
11:35 pm 23:35 Clear 50 10 46 8 88 88 N N/A 30.28 1025 10 16.0934 N/A
11:55 pm 23:55 Clear 50 10 43 6 76 76 N N/A 30.28 1025 10 16.0934 N/A

Powered by AerisWeather